Wind_Speed
10 10 12 13 14 14 14 15 17 18 18 18 17 17 19 18 15 13 12 12 12 12 11 9 7 7 7 6 6 4 1 1 5 10 10 9 8 6 7 9 8 4 5 7 6 5 5
12 13 13 14 15 17 18 19 20 21 22 22 21 21 17 14 13 13 13 13 14 13 12 10 8 6 7 7 7 6 3 0 3 7 8 8 8 8 8 9 6 6 8 5 5 4 5
14 14 15 16 17 17 17 19 21 22 23 22 19 17 16 14 14 15 16 16 16 14 12 11 9 6 6 7 7 6 4 3 7 8 7 6 6 7 6 8 6 8 9 8 3 2 2
16 16 15 16 18 18 18 19 19 20 21 21 21 19 17 16 16 16 15 14 13 13 11 10 9 7 4 6 7 5 4 6 10 9 6 6 4 7 7 7 8 11 11 12 8 2 3
18 18 17 17 17 18 18 17 17 17 18 19 17 18 18 16 14 12 11 10 10 10 9 8 8 7 5 5 6 5 5 9 10 8 8 5 4 6 6 7 9 11 12 12 14 10 8
21 20 20 18 18 18 18 18 17 16 15 16 16 16 16 13 12 9 8 8 8 9 9 8 7 6 6 7 7 7 10 12 10 8 7 5 3 4 5 7 8 10 10 11 12 11 10
21 21 21 21 19 19 19 19 18 17 16 16 16 15 14 12 11 9 9 9 8 8 8 8 7 6 5 8 9 9 12 14 12 9 6 4 1 4 5 5 6 8 7 8 11 9 9
20 21 21 21 22 21 20 20 19 18 17 17 17 16 15 13 12 11 11 10 9 8 7 7 6 5 5 7 10 12 14 14 12 10 7 4 0 3 4 4 5 7 7 10 9 9 5
20 20 21 22 22 22 22 21 21 20 19 18 18 18 17 16 14 12 12 12 10 9 8 7 8 7 7 8 11 14 13 11 10 9 6 3 2 2 4 6 8 10 10 13 11 10 5
20 20 20 21 23 23 22 22 21 21 20 19 19 18 18 17 16 15 14 13 12 11 10 9 9 8 8 10 12 13 12 10 9 8 7 5 5 6 8 10 9 12 14 13 9 8 8
20 20 21 22 22 22 23 22 22 21 21 21 20 19 18 18 18 16 16 16 15 14 13 13 13 12 11 11 12 13 12 11 10 9 8 8 8 8 9 9 10 10 12 9 6 14 12
19 19 19 20 20 21 21 22 22 21 21 21 21 19 18 19 18 17 16 16 16 16 18 17 17 16 14 13 13 13 13 11 11 10 9 9 9 8 8 7 7 9 9 7 7 14 10
19 18 17 16 17 18 19 19 20 21 21 20 21 21 20 19 19 18 17 16 16 18 18 20 18 16 16 16 16 15 14 13 13 11 10 10 9 7 5 6 9 7 9 3 16 13 10
18 18 17 15 14 14 15 17 17 19 21 19 21 21 20 21 21 19 19 18 17 18 20 21 16 14 15 16 16 16 15 13 12 11 11 10 9 6 5 7 7 10 8 4 18 13 12
17 17 17 16 15 13 13 14 14 17 20 19 21 20 20 21 21 20 20 19 20 20 20 20 18 16 15 15 14 15 15 15 13 11 11 12 12 11 10 10 8 8 9 5 19 16 9
18 18 17 17 16 16 14 14 14 16 18 18 20 20 20 21 21 21 21 20 22 21 21 21 20 18 14 14 14 15 16 16 14 14 12 13 14 12 13 12 12 11 6 7 7 18 16
19 19 19 18 17 17 17 16 15 16 17 18 19 20 20 20 20 21 20 21 24 23 23 23 22 19 16 15 14 15 17 16 15 12 11 10 12 12 13 14 12 11 11 11 10 10 20
18 20 22 21 19 18 17 17 17 17 18 18 19 20 19 20 20 20 21 23 26 26 26 23 22 21 19 16 14 14 16 15 14 10 10 12 13 12 12 13 12 12 15 14 14 15 17
16 17 18 21 22 21 19 19 19 18 19 20 21 20 20 20 21 21 22 25 29 30 25 22 24 23 21 19 16 16 16 17 14 16 17 17 15 16 13 13 14 15 16 16 15 16 18
15 15 16 18 20 23 23 22 21 21 21 22 22 21 20 21 21 21 23 26 30 30 25 25 24 24 24 22 21 20 16 19 17 14 14 15 14 16 21 19 19 21 22 22 22 23 24
14 15 15 15 17 19 22 24 24 23 23 22 22 21 21 22 22 22 24 25 27 27 28 29 26 25 25 23 22 21 19 21 18 17 19 20 19 17 19 23 25 26 26 26 25 26 29
13 13 13 13 13 15 17 19 21 22 22 21 20 20 20 20 21 22 23 23 26 29 28 27 24 24 23 26 27 28 27 26 25 22 23 25 25 23 25 26 26 27 26 27 29 29 28
13 12 11 10 10 11 12 14 15 15 15 15 15 17 18 18 20 21 21 22 24 25 24 21 19 16 17 22 26 32 37 35 30 27 25 24 24 24 25 24 24 25 25 27 26 26 25
12 11 10 9 9 9 10 11 11 13 14 14 14 14 14 15 17 19 20 20 22 25 24 21 19 19 21 25 28 27 28 29 27 24 22 23 25 26 24 23 26 25 25 24 23 23 22
12 11 10 10 9 9 9 10 11 11 13 15 15 13 13 14 16 19 21 22 22 23 23 21 22 24 25 26 24 22 20 20 20 21 23 24 23 23 24 24 25 21 21 22 22 22 23
12 11 10 9 9 8 9 10 11 12 13 15 15 14 13 14 15 17 19 21 22 22 21 21 22 23 24 24 22 19 19 20 21 22 22 22 22 23 25 25 23 20 21 21 20 21 25
11 10 10 9 8 7 8 9 10 12 14 14 15 15 15 15 16 17 16 18 21 21 22 22 22 22 22 22 22 21 22 21 22 20 21 23 25 25 23 22 22 21 21 21 23 23 27
11 9 9 8 8 7 8 9 11 12 13 13 14 15 15 16 17 17 18 18 18 19 19 18 19 19 19 20 20 19 17 18 20 22 24 24 22 21 21 21 20 21 21 22 24 26 27
11 10 10 10 9 7 7 8 10 11 12 13 14 15 15 15 16 16 17 17 17 17 18 19 18 16 15 17 17 18 18 19 20 20 20 20 21 20 19 19 20 21 22 24 25 26 27
Wind_Direction
237 231 227 226 225 225 226 227 229 234 239 243 247 253 264 271 265 263 261 265 275 287 296 298 298 294 287 283 274 265 272 57 123 141 145 142 129 125 124 104 115 110 92 107 93 101 87
239 241 238 234 232 234 236 237 240 243 246 249 254 259 261 259 255 256 259 264 271 279 282 284 288 288 282 274 264 256 245 216 154 154 150 145 144 136 116 96 93 68 73 88 85 58 120
249 240 242 242 241 240 239 240 243 246 247 248 249 251 252 254 258 261 262 263 265 266 269 272 279 280 273 272 259 254 239 205 162 169 163 151 138 111 102 95 72 57 45 42 58 349 120
258 253 246 244 245 245 244 245 249 247 248 248 246 247 250 255 260 263 262 259 254 250 254 264 274 276 260 254 250 238 226 190 177 175 150 132 125 104 80 70 55 44 33 19 24 293 336
261 259 256 251 247 247 248 248 248 247 248 244 245 242 247 254 252 257 258 246 238 238 243 251 262 270 243 223 237 225 206 180 188 164 146 146 127 94 78 57 52 50 37 27 23 29 350
261 260 261 259 255 251 248 247 248 248 246 240 240 239 241 238 242 243 233 228 229 232 236 243 246 251 245 214 205 205 180 174 176 164 156 151 124 88 56 44 45 42 32 15 13 14 354
265 262 260 260 258 255 253 249 246 248 246 241 237 234 231 232 235 230 224 224 229 233 237 234 236 238 234 213 189 179 180 176 170 166 158 148 156 47 36 25 19 18 10 354 342 1 360
265 263 263 259 258 256 252 251 247 245 246 244 237 231 232 231 228 227 225 226 224 226 229 226 223 215 194 198 175 170 178 177 180 170 179 182 108 29 10 345 328 332 334 320 323 327 347
267 266 263 262 258 256 254 250 246 244 244 241 240 237 233 232 229 226 224 223 222 224 223 221 217 204 186 182 180 173 182 185 192 190 192 228 297 311 292 293 304 314 314 309 307 286 282
266 266 265 261 259 256 254 252 247 242 242 241 238 237 234 230 228 225 225 222 221 222 225 227 222 206 193 187 182 185 186 197 213 216 213 230 250 261 273 285 304 307 306 300 295 239 223
265 268 268 264 259 255 253 252 249 245 242 240 239 235 233 229 230 229 230 229 226 226 230 227 224 219 207 198 197 196 200 203 219 227 230 239 255 272 280 292 303 305 303 296 262 204 222
261 264 267 266 261 256 252 249 248 245 242 241 241 236 232 230 228 226 231 233 229 226 229 228 231 223 216 212 211 210 210 211 218 230 240 249 264 266 270 280 304 305 325 308 211 194 205
261 261 264 264 262 257 252 248 245 243 241 238 240 237 235 231 228 223 225 229 229 227 230 234 234 229 224 220 220 221 218 220 222 228 237 250 258 249 236 269 298 330 332 282 165 184 214
259 260 260 263 262 259 254 250 244 241 239 234 235 235 232 233 233 226 224 226 226 230 230 238 241 238 228 225 222 225 224 222 219 226 236 245 230 230 224 244 282 305 323 206 174 190 208
259 258 258 257 260 258 256 252 245 239 239 235 231 234 229 232 232 231 226 225 225 229 234 236 239 236 231 230 229 228 228 228 226 222 227 239 236 220 223 231 249 285 319 278 192 198 214
260 258 258 257 256 256 257 255 249 242 240 236 232 231 232 233 232 231 228 226 229 226 229 231 232 236 235 237 237 230 234 231 228 226 227 234 243 237 230 234 244 276 309 311 229 221 232
262 259 256 255 254 252 251 251 250 241 238 236 231 233 234 234 232 230 227 228 231 228 227 224 229 233 235 239 240 234 230 225 231 235 245 229 240 257 246 242 252 265 276 279 267 255 246
270 265 258 253 251 250 249 246 246 242 239 237 237 235 234 234 234 230 224 226 231 229 226 218 225 228 225 229 226 221 219 227 234 253 241 239 229 236 253 258 270 269 277 280 281 269 253
279 271 264 255 249 248 247 245 243 240 238 237 238 240 238 239 238 231 224 224 233 232 226 221 220 225 227 223 211 210 227 229 229 239 237 241 241 239 254 266 272 280 288 293 293 284 280
285 276 268 263 254 247 245 245 243 241 240 240 243 243 243 238 233 226 220 220 227 233 231 229 225 222 230 240 234 233 239 228 228 234 230 236 239 247 261 269 280 284 288 290 291 293 293
292 281 272 266 257 250 247 247 245 245 244 245 243 241 237 234 226 219 216 217 223 231 232 233 232 232 237 244 256 260 250 244 243 253 260 264 270 275 275 276 281 284 286 289 290 290 289
298 288 275 266 262 255 250 246 243 243 243 243 238 230 224 221 219 213 212 213 220 228 235 239 242 243 247 251 250 243 250 253 252 256 261 261 265 268 272 276 278 278 283 286 285 284 282
301 294 284 271 264 255 246 242 238 232 224 221 217 213 212 215 217 213 214 214 218 226 233 241 239 235 242 253 247 242 242 246 247 255 267 257 261 273 280 281 278 277 279 280 282 282 286
297 292 284 272 262 254 242 234 227 219 220 218 213 210 213 221 219 214 215 216 215 220 229 237 243 237 242 249 247 247 245 243 248 254 257 265 275 278 278 273 271 276 282 283 286 286 288
288 284 278 273 259 246 238 232 229 217 210 213 218 217 223 222 216 208 207 208 213 218 225 233 234 235 237 241 245 246 246 244 249 255 261 268 270 273 275 275 278 281 279 283 286 286 291
278 278 273 269 257 242 234 228 224 220 214 216 218 218 218 213 207 203 204 207 214 223 225 228 234 237 240 245 247 243 246 252 258 265 264 264 267 269 273 276 277 281 285 291 287 285 289
268 272 267 262 254 244 235 229 225 225 222 218 216 214 215 213 213 214 213 216 219 222 224 225 228 235 241 246 250 253 257 258 259 260 259 259 262 267 270 275 281 286 289 290 286 287 285
256 262 261 256 253 246 237 232 226 226 222 215 213 212 212 212 213 217 217 221 221 223 227 231 237 239 240 245 249 252 253 252 255 259 262 263 265 268 272 275 279 285 287 286 287 290 293
246 252 260 251 250 248 240 234 229 224 218 215 214 211 211 212 213 219 222 224 226 228 230 232 235 239 241 246 248 251 253 253 254 253 256 258 262 264 269 275 281 284 285 289 292 294 296
Height
5896 5897 5898 5899 5900 5901 5902 5904 5905 5906 5907 5909 5910 5911 5912 5913 5913 5914 5914 5915 5915 5916 5917 5917 5918 5918 5918 5919 5920 5920 5921 5923 5926 5926 5927 5929 5930 5930 5931 5931 5932 5934 5934 5933 5932 5931 5930
5894 5895 5896 5896 5897 5898 5900 5901 5902 5903 5904 5905 5907 5908 5909 5909 5910 5911 5912 5913 5913 5914 5915 5915 5916 5917 5917 5918 5918 5919 5921 5922 5924 5925 5927 5928 5930 5930 5931 5931 5932 5933 5934 5934 5932 5931 5931
5891 5892 5893 5894 5894 5895 5896 5897 5898 5899 5901 5902 5903 5904 5905 5906 5908 5908 5909 5910 5911 5912 5913 5913 5914 5915 5916 5917 5917 5918 5920 5921 5923 5924 5926 5927 5928 5930 5931 5931 5933 5932 5932 5932 5932 5931 5931
5888 5889 5890 5890 5891 5892 5893 5894 5894 5895 5896 5898 5899 5901 5902 5903 5904 5905 5906 5907 5908 5909 5910 5912 5912 5913 5915 5914 5915 5917 5919 5920 5921 5923 5925 5927 5928 5929 5930 5931 5932 5931 5932 5931 5931 5931 5931
5884 5885 5886 5887 5888 5888 5890 5890 5891 5892 5893 5894 5895 5897 5899 5900 5901 5902 5903 5904 5905 5907 5908 5910 5911 5912 5913 5913 5914 5916 5917 5919 5920 5922 5924 5926 5928 5929 5930 5931 5932 5932 5932 5932 5930 5930 5930
5881 5881 5882 5883 5884 5885 5886 5887 5888 5889 5889 5891 5892 5894 5895 5897 5899 5900 5901 5902 5903 5905 5906 5907 5909 5911 5911 5912 5913 5914 5916 5918 5920 5922 5924 5926 5927 5928 5929 5931 5932 5932 5932 5932 5931 5932 5930
5877 5877 5878 5878 5879 5880 5881 5883 5884 5886 5887 5888 5889 5891 5893 5895 5896 5898 5899 5900 5903 5904 5904 5906 5907 5908 5909 5910 5912 5914 5916 5917 5920 5922 5924 5926 5927 5928 5929 5930 5932 5931 5932 5931 5930 5931 5930
5872 5873 5873 5874 5875 5876 5877 5879 5880 5882 5883 5885 5886 5888 5890 5892 5894 5895 5897 5898 5900 5902 5903 5904 5905 5907 5908 5909 5911 5913 5916 5919 5920 5921 5924 5926 5926 5927 5928 5929 5929 5930 5930 5930 5930 5929 5930
5867 5868 5869 5869 5870 5871 5873 5874 5876 5878 5879 5881 5883 5885 5887 5890 5891 5893 5895 5896 5898 5900 5901 5903 5904 5905 5907 5909 5910 5912 5916 5918 5919 5921 5923 5924 5925 5926 5926 5927 5927 5927 5927 5927 5928 5928 5927
5862 5863 5864 5864 5865 5866 5867 5869 5872 5874 5875 5877 5879 5881 5884 5886 5890 5890 5892 5894 5896 5898 5900 5902 5903 5905 5907 5908 5910 5912 5914 5917 5918 5920 5922 5923 5923 5924 5924 5924 5925 5924 5924 5924 5924 5925 5926
5858 5858 5858 5859 5860 5861 5862 5864 5867 5869 5871 5873 5875 5877 5880 5882 5885 5887 5890 5891 5894 5896 5898 5899 5900 5902 5905 5908 5910 5911 5913 5915 5917 5918 5920 5921 5921 5922 5922 5922 5922 5922 5921 5921 5921 5921 5922
5852 5853 5853 5854 5854 5856 5857 5859 5861 5864 5866 5869 5871 5873 5876 5878 5881 5884 5885 5888 5891 5894 5894 5895 5896 5899 5902 5905 5907 5909 5911 5913 5915 5916 5917 5918 5919 5920 5919 5919 5920 5920 5919 5918 5919 5919 5921
5848 5848 5849 5849 5849 5851 5852 5854 5856 5858 5861 5864 5866 5869 5872 5874 5877 5880 5882 5885 5888 5889 5891 5892 5894 5896 5899 5902 5904 5906 5908 5910 5912 5913 5914 5915 5916 5917 5918 5918 5918 5918 5917 5918 5919 5919 5920
5843 5844 5844 5845 5845 5846 5847 5849 5851 5853 5856 5859 5861 5864 5867 5870 5873 5876 5879 5882 5884 5886 5886 5889 5892 5895 5897 5898 5901 5903 5905 5907 5909 5911 5912 5913 5915 5915 5916 5917 5917 5916 5917 5917 5917 5917 5918
5838 5839 5840 5840 5841 5842 5843 5845 5846 5849 5851 5854 5857 5859 5863 5866 5869 5872 5875 5877 5879 5881 5884 5886 5889 5891 5893 5895 5899 5901 5902 5904 5906 5908 5911 5911 5912 5914 5914 5915 5916 5915 5916 5916 5917 5916 5917
5833 5834 5835 5835 5836 5838 5839 5840 5842 5844 5846 5849 5852 5855 5858 5861 5864 5867 5871 5873 5874 5878 5880 5883 5886 5888 5891 5893 5896 5898 5899 5902 5903 5906 5907 5908 5910 5912 5912 5913 5914 5914 5915 5915 5915 5916 5915
5828 5829 5829 5830 5832 5833 5834 5836 5838 5840 5842 5845 5848 5851 5853 5856 5859 5862 5866 5868 5869 5873 5876 5879 5882 5885 5888 5890 5893 5895 5897 5900 5901 5904 5905 5907 5908 5910 5910 5911 5911 5912 5912 5913 5913 5913 5913
5823 5823 5824 5825 5827 5828 5829 5831 5833 5835 5838 5840 5843 5846 5849 5851 5855 5857 5860 5862 5864 5867 5871 5876 5879 5882 5885 5888 5891 5893 5895 5897 5900 5902 5903 5904 5905 5906 5908 5908 5908 5909 5908 5908 5908 5909 5908
5818 5818 5818 5819 5820 5822 5824 5826 5828 5830 5833 5835 5837 5840 5843 5845 5848 5851 5854 5857 5858 5861 5867 5873 5876 5879 5882 5886 5889 5891 5893 5895 5897 5898 5899 5901 5903 5904 5905 5906 5905 5904 5904 5903 5902 5902 5902
5813 5812 5812 5813 5814 5816 5818 5820 5822 5825 5827 5830 5832 5835 5837 5839 5842 5845 5849 5851 5854 5857 5863 5867 5871 5875 5878 5881 5885 5888 5890 5891 5892 5893 5894 5897 5898 5899 5900 5900 5899 5899 5898 5897 5897 5896 5894
5809 5808 5808 5808 5808 5810 5812 5814 5816 5819 5821 5824 5826 5828 5830 5833 5836 5839 5843 5847 5851 5854 5858 5862 5866 5870 5873 5876 5878 5881 5884 5886 5887 5888 5889 5890 5891 5892 5893 5893 5893 5892 5892 5892 5891 5890 5888
5805 5804 5804 5803 5804 5804 5806 5808 5810 5813 5815 5817 5819 5822 5825 5828 5831 5834 5838 5843 5847 5850 5855 5859 5863 5866 5869 5872 5874 5876 5878 5880 5882 5883 5884 5886 5886 5888 5887 5887 5887 5886 5886 5886 5884 5883 5881
5802 5801 5800 5800 5800 5800 5802 5803 5805 5808 5810 5812 5814 5817 5821 5824 5827 5831 5834 5839 5843 5847 5851 5855 5858 5861 5864 5865 5865 5866 5869 5871 5874 5877 5878 5879 5881 5881 5881 5881 5880 5881 5880 5879 5877 5875 5874
5798 5798 5797 5797 5797 5798 5799 5800 5802 5804 5806 5809 5811 5815 5818 5821 5824 5827 5831 5835 5839 5843 5847 5850 5853 5855 5857 5856 5857 5859 5861 5864 5867 5869 5871 5873 5873 5873 5874 5874 5874 5874 5872 5871 5869 5868 5867
5795 5795 5795 5795 5795 5795 5796 5797 5799 5801 5804 5806 5809 5812 5814 5817 5820 5823 5826 5830 5833 5837 5841 5844 5847 5849 5850 5851 5852 5853 5856 5859 5861 5863 5866 5867 5867 5866 5866 5867 5867 5867 5865 5864 5863 5862 5860
5792 5792 5792 5792 5792 5793 5794 5795 5796 5798 5801 5804 5806 5809 5812 5814 5817 5820 5823 5826 5829 5832 5835 5838 5842 5844 5846 5846 5848 5849 5852 5854 5856 5858 5858 5859 5859 5860 5859 5860 5859 5860 5858 5857 5856 5856 5853
5788 5788 5789 5789 5790 5790 5791 5793 5794 5796 5798 5800 5803 5806 5809 5812 5814 5817 5820 5823 5826 5829 5831 5834 5837 5839 5841 5842 5843 5845 5847 5849 5850 5851 5852 5853 5852 5853 5852 5853 5852 5852 5851 5850 5850 5852 5847
5784 5785 5786 5787 5788 5788 5789 5790 5792 5793 5795 5797 5800 5803 5806 5809 5811 5814 5817 5820 5822 5825 5828 5831 5833 5834 5836 5837 5839 5840 5842 5843 5844 5845 5846 5846 5847 5847 5847 5847 5848 5846 5845 5845 5843 5840 5838
5781 5782 5784 5785 5786 5787 5787 5788 5789 5791 5793 5794 5797 5800 5802 5805 5809 5811 5814 5817 5819 5822 5824 5826 5828 5830 5832 5833 5835 5836 5837 5838 5839 5840 5840 5842 5842 5843 5843 5842 5840 5839 5838 5836 5834 5832 5830